Weather History for Roseau, MN

Change the Weather History Date:

Thursday, February 21, 2013

  Actual Average Record
Temperature  
Mean Temperature 4 °F -  
Max Temperature 12 °F 23 °F 44 °F (2000)
Min Temperature -5 °F -1 °F -36 °F (1966)
Degree Days  
Heating Degree Days 62    
Moisture  
Dew Point -5 °F    
Average Humidity 67    
Maximum Humidity 73    
Minimum Humidity 60    
Precipitation  
Precipitation 0.00 in - - ()
Sea Level Pressure  
Sea Level Pressure 30.36 in    
Wind  
Wind Speed 8 mph (East)    
Max Wind Speed 13 mph    
Max Gust Speed -    
Visibility 10 miles    
Events      
Averages and records for this station are not official NWS values.
T = Trace of Precipitation, MM = Missing Value Source: NWS Daily Summary

Daily Weather History Graph

Daily Weather History Graph

Search for Another Location

Airport:

Trip Planner

Search our weather history database for the weather conditions in past years. The results will help you decide how hot, cold, wet, or windy it might be!

Date:

Astronomy

Feb. 21, 2013 Rise Set
Actual Time 7:19 AM CST 5:53 PM CST
Civil Twilight 6:47 AM CST 6:26 PM CST
Nautical Twilight 6:10 AM CST 7:02 PM CST
Astronomical Twilight 5:34 AM CST 7:39 PM CST
Moon 1:56 PM CST (2/21) 4:38 AM CST (2/21)
Length of Visible Light 11h 38m
Length of Day
10h 34m
Waxing Gibbous, 84% of the Moon is Illuminated
Feb 21
Waxing Gibbous
Feb 25
Full
Mar 4
Last Quarter
Mar 11
New
Mar 19
First Quarter

Hourly Weather History & Observations

Time (CST) Temp. Windchill Dew Point Humidity Pressure Visibility Wind Dir Wind Speed Gust Speed Precip Events Conditions
12:15 AM 1.4 °F -13.5 °F -9.4 °F 61% 30.40 in 10.0 mi ESE 9.2 mph - N/A   Clear
12:34 AM 3.2 °F -11.3 °F -7.6 °F 61% 30.40 in 10.0 mi ESE 9.2 mph - N/A   Clear
12:54 AM 1.4 °F -9.9 °F -9.4 °F 61% 30.41 in 10.0 mi East 5.8 mph - N/A   Clear
1:14 AM 1.4 °F -11.3 °F -9.4 °F 61% 30.41 in 10.0 mi East 6.9 mph - N/A   Clear
1:34 AM 1.4 °F -11.3 °F -9.4 °F 61% 30.41 in 10.0 mi East 6.9 mph - N/A   Clear
1:54 AM 1.4 °F -9.9 °F -9.4 °F 61% 30.42 in 10.0 mi East 5.8 mph - N/A   Clear
2:14 AM -0.4 °F -13.4 °F -9.4 °F 66% 30.42 in 10.0 mi East 6.9 mph - N/A   Clear
2:34 AM -0.4 °F -13.4 °F -9.4 °F 66% 30.42 in 10.0 mi East 6.9 mph - N/A   Clear
2:54 AM -5.8 °F -19.9 °F -14.8 °F 65% 30.42 in 10.0 mi East 6.9 mph - N/A   Clear
3:14 AM -4.0 °F -21.2 °F -11.2 °F 71% 30.42 in 10.0 mi East 10.4 mph - N/A   Clear
3:34 AM -0.4 °F -13.4 °F -9.4 °F 66% 30.42 in 10.0 mi East 6.9 mph - N/A   Clear
3:54 AM -0.4 °F -14.7 °F -9.4 °F 66% 30.42 in 10.0 mi East 8.1 mph - N/A   Clear
4:14 AM -0.4 °F -13.4 °F -9.4 °F 66% 30.42 in 10.0 mi East 6.9 mph - N/A   Clear
4:35 AM -0.4 °F -13.4 °F -9.4 °F 66% 30.42 in 10.0 mi East 6.9 mph - N/A   Clear
4:54 AM -0.4 °F -13.4 °F -9.4 °F 66% 30.42 in 10.0 mi ESE 6.9 mph - N/A   Clear
5:14 AM -0.4 °F -13.4 °F -9.4 °F 66% 30.42 in 10.0 mi ESE 6.9 mph - N/A   Clear
5:54 AM -2.2 °F -16.8 °F -11.2 °F 66% 30.43 in 10.0 mi East 8.1 mph - N/A   Clear
6:14 AM -2.2 °F -16.8 °F -11.2 °F 66% 30.42 in 10.0 mi East 8.1 mph - N/A   Clear
6:35 AM -4.0 °F -21.2 °F -11.2 °F 71% 30.42 in 10.0 mi East 10.4 mph - N/A   Clear
6:54 AM -2.2 °F -18.9 °F -11.2 °F 66% 30.42 in 10.0 mi East 10.4 mph - N/A   Clear
7:14 AM -2.2 °F -18.0 °F -11.2 °F 66% 30.42 in 10.0 mi East 9.2 mph - N/A   Clear
7:34 AM -4.0 °F -20.2 °F -11.2 °F 71% 30.41 in 10.0 mi East 9.2 mph - N/A   Clear
7:54 AM -4.0 °F -19.0 °F -11.2 °F 71% 30.40 in 10.0 mi East 8.1 mph - N/A   Clear
8:15 AM -4.0 °F -17.8 °F -11.2 °F 71% 30.40 in 10.0 mi East 6.9 mph - N/A   Clear
8:34 AM -5.8 °F -19.9 °F -13.0 °F 71% 30.40 in 10.0 mi East 6.9 mph - N/A   Clear
8:54 AM -4.0 °F -19.0 °F -13.0 °F 65% 30.41 in 10.0 mi East 8.1 mph - N/A   Clear
9:15 AM -2.2 °F -15.6 °F -11.2 °F 66% 30.42 in 10.0 mi ESE 6.9 mph - N/A   Clear
9:34 AM -0.4 °F -12.0 °F -11.2 °F 60% 30.44 in 10.0 mi ESE 5.8 mph - N/A   Clear
9:54 AM -0.4 °F -13.4 °F -9.4 °F 66% 30.44 in 10.0 mi ESE 6.9 mph - N/A   Clear
10:14 AM 1.4 °F -9.9 °F -9.4 °F 61% 30.45 in 10.0 mi ESE 5.8 mph - N/A   Clear
10:34 AM 1.4 °F -8.3 °F -7.6 °F 66% 30.44 in 10.0 mi East 4.6 mph - N/A   Clear
10:54 AM 3.2 °F -10.3 °F -5.8 °F 66% 30.42 in 10.0 mi ENE 8.1 mph - N/A   Clear
11:14 AM 3.2 °F -9.1 °F -5.8 °F 66% 30.41 in 10.0 mi ENE 6.9 mph - N/A   Clear
11:34 AM 8.6 °F -2.6 °F -0.4 °F 67% 30.41 in 10.0 mi ENE 6.9 mph - N/A   Clear
11:54 AM 6.8 °F -4.8 °F -2.2 °F 67% 30.40 in 10.0 mi ENE 6.9 mph - N/A   Clear
12:14 PM 8.6 °F -2.6 °F -0.4 °F 67% 30.39 in 10.0 mi ENE 6.9 mph - N/A   Clear
12:34 PM 10.4 °F -0.4 °F 1.4 °F 67% 30.39 in 10.0 mi ENE 6.9 mph - N/A   Clear
12:54 PM 10.4 °F -1.5 °F 1.4 °F 67% 30.39 in 10.0 mi ENE 8.1 mph - N/A   Clear
1:14 PM 12.2 °F 0.7 °F 1.4 °F 62% 30.38 in 10.0 mi ENE 8.1 mph - N/A   Clear
1:34 PM 12.2 °F 0.7 °F 1.4 °F 62% 30.37 in 10.0 mi ENE 8.1 mph - N/A   Clear
1:54 PM 10.4 °F -2.4 °F 1.4 °F 67% 30.36 in 10.0 mi ENE 9.2 mph - N/A   Clear
2:14 PM 10.4 °F -3.3 °F 1.4 °F 67% 30.36 in 10.0 mi ENE 10.4 mph - N/A   Clear
2:34 PM 10.4 °F -4.8 °F 1.4 °F 67% 30.35 in 10.0 mi ENE 12.7 mph - N/A   Clear
2:54 PM 10.4 °F -3.3 °F 1.4 °F 67% 30.35 in 10.0 mi ENE 10.4 mph - N/A   Clear
3:14 PM 10.4 °F -1.5 °F 3.2 °F 73% 30.34 in 10.0 mi ENE 8.1 mph - N/A   Clear
3:34 PM 12.2 °F 0.7 °F 3.2 °F 67% 30.33 in 10.0 mi ENE 8.1 mph - N/A   Clear
3:55 PM 10.4 °F -2.4 °F 3.2 °F 73% 30.32 in 10.0 mi NE 9.2 mph - N/A   Clear
4:14 PM 12.2 °F -2.5 °F 3.2 °F 67% 30.31 in 10.0 mi ENE 12.7 mph - N/A   Clear
4:34 PM 12.2 °F -1.8 °F 3.2 °F 67% 30.31 in 10.0 mi ENE 11.5 mph - N/A   Clear
4:54 PM 12.2 °F -0.2 °F 3.2 °F 67% 30.31 in 10.0 mi ENE 9.2 mph - N/A   Clear
5:14 PM 8.6 °F -4.7 °F 1.4 °F 73% 30.32 in 10.0 mi ENE 9.2 mph - N/A   Clear
5:35 PM 8.6 °F -3.7 °F 1.4 °F 73% 30.31 in 10.0 mi ENE 8.1 mph - N/A   Clear
5:54 PM 8.6 °F -3.7 °F 1.4 °F 73% 30.31 in 10.0 mi ENE 8.1 mph - N/A   Clear
6:14 PM 10.4 °F -3.3 °F 3.2 °F 73% 30.31 in 10.0 mi ENE 10.4 mph - N/A   Clear
6:34 PM 10.4 °F -2.4 °F 1.4 °F 67% 30.30 in 10.0 mi ENE 9.2 mph - N/A   Clear
6:54 PM 10.4 °F -2.4 °F 1.4 °F 67% 30.30 in 10.0 mi East 9.2 mph - N/A   Clear
7:14 PM 10.4 °F -1.5 °F 1.4 °F 67% 30.29 in 10.0 mi East 8.1 mph - N/A   Clear
7:34 PM 10.4 °F -2.4 °F 3.2 °F 73% 30.29 in 10.0 mi East 9.2 mph - N/A   Clear
7:54 PM 8.6 °F -4.7 °F 1.4 °F 73% 30.29 in 10.0 mi East 9.2 mph - N/A   Clear
8:14 PM 8.6 °F -2.6 °F 1.4 °F 73% 30.28 in 10.0 mi ENE 6.9 mph - N/A   Clear
8:34 PM 6.8 °F -5.9 °F -0.4 °F 72% 30.28 in 10.0 mi East 8.1 mph - N/A   Clear
8:54 PM 8.6 °F -4.7 °F -0.4 °F 67% 30.26 in 10.0 mi East 9.2 mph - N/A   Clear
9:14 PM 6.8 °F -5.9 °F -2.2 °F 67% 30.26 in 10.0 mi East 8.1 mph - N/A   Clear
9:34 PM 6.8 °F -3.5 °F -2.2 °F 67% 30.26 in 10.0 mi ENE 5.8 mph - N/A   Clear
9:54 PM 5.0 °F -8.1 °F -4.0 °F 66% 30.25 in 10.0 mi ENE 8.1 mph - N/A   Clear
10:14 PM 3.2 °F -10.3 °F -5.8 °F 66% 30.25 in 10.0 mi ENE 8.1 mph - N/A   Clear
10:34 PM 3.2 °F -10.3 °F -5.8 °F 66% 30.24 in 10.0 mi ENE 8.1 mph - N/A   Clear
10:54 PM 1.4 °F -11.3 °F -5.8 °F 72% - 10.0 mi ENE 6.9 mph - N/A   Clear
11:14 PM 1.4 °F -12.5 °F -7.6 °F 66% 30.24 in 10.0 mi ENE 8.1 mph - N/A   Clear
11:34 PM -0.4 °F -13.4 °F -7.6 °F 72% 30.23 in 10.0 mi ENE 6.9 mph - N/A   Clear